TimeMDT,TemperatureF,Dew PointF,Humidity,Sea Level PressureIn,VisibilityMPH,Wind Direction,Wind SpeedMPH,Gust SpeedMPH,PrecipitationIn,Events,Conditions,WindDirDegrees,DateUTC
12:53 AM,45.0,28.9,53,30.14,10.0,WSW,10.4,-,N/A,,Clear,240,2012-10-15 06:53:00
1:53 AM,46.9,28.9,50,30.12,10.0,SW,10.4,-,N/A,,Clear,230,2012-10-15 07:53:00
2:53 AM,44.1,28.0,53,30.12,10.0,SW,11.5,-,N/A,,Clear,230,2012-10-15 08:53:00
3:53 AM,39.9,28.0,63,30.12,10.0,WSW,12.7,-,N/A,,Clear,240,2012-10-15 09:53:00
4:53 AM,41.0,27.0,57,30.10,10.0,WSW,11.5,-,N/A,,Clear,250,2012-10-15 10:53:00
5:53 AM,39.9,26.1,58,30.11,10.0,WNW,9.2,-,N/A,,Clear,290,2012-10-15 11:53:00
6:53 AM,36.0,26.1,67,30.18,10.0,West,10.4,-,N/A,,Clear,270,2012-10-15 12:53:00
7:53 AM,46.9,28.0,48,30.14,10.0,WNW,11.5,-,N/A,,Clear,290,2012-10-15 13:53:00
8:53 AM,52.0,28.9,41,30.14,10.0,WNW,12.7,-,N/A,,Clear,290,2012-10-15 14:53:00
9:53 AM,57.0,30.0,36,30.12,10.0,West,16.1,-,N/A,,Clear,280,2012-10-15 15:53:00
10:53 AM,61.0,28.9,30,30.11,10.0,West,18.4,-,N/A,,Clear,270,2012-10-15 16:53:00
12:53 PM,68.0,28.0,22,30.01,10.0,WNW,21.9,26.5,N/A,,Clear,290,2012-10-15 18:53:00
1:53 PM,70.0,23.0,17,29.96,10.0,West,23.0,31.1,N/A,,Clear,280,2012-10-15 19:53:00
2:53 PM,71.1,25.0,18,29.94,10.0,WNW,21.9,36.8,N/A,,Clear,290,2012-10-15 20:53:00
3:53 PM,70.0,21.0,16,29.93,10.0,WNW,20.7,29.9,N/A,,Clear,290,2012-10-15 21:53:00
4:53 PM,69.1,19.9,15,29.93,10.0,WNW,18.4,27.6,N/A,,Clear,300,2012-10-15 22:53:00
5:53 PM,64.9,21.9,19,29.94,10.0,WNW,19.6,25.3,N/A,,Clear,290,2012-10-15 23:53:00
6:53 PM,57.9,26.1,30,29.97,10.0,West,15.0,-,N/A,,Clear,270,2012-10-16 00:53:00
7:53 PM,57.0,26.1,30,29.98,10.0,West,16.1,-,N/A,,Clear,260,2012-10-16 01:53:00
8:53 PM,54.0,26.1,34,29.94,10.0,West,16.1,-,N/A,,Clear,270,2012-10-16 02:53:00
9:53 PM,52.0,26.1,37,29.93,10.0,West,15.0,-,N/A,,Clear,280,2012-10-16 03:53:00
10:53 PM,50.0,26.1,39,29.92,10.0,WNW,15.0,-,N/A,,Clear,290,2012-10-16 04:53:00
11:53 PM,51.1,26.1,38,30.09,10.0,WNW,19.6,-,N/A,,Clear,290,2012-10-16 05:53:00